| time (UTC) | temp C | wind direction | speed KPH | gust KPH | rain 1hr cm | rain 24hr cm | rain mn cm | humidity % | barometer mb |
| 20260901050440 | 23 | 233 | 0.0 | 0.0 | 0.00 | 0.00 | 0.00 | 96 | 1020.0 |
| 20260901045935 | 23 | 233 | 0.0 | 0.0 | 0.00 | 0.00 | 0.00 | 95 | 1020.1 |
| 20260901045430 | 23 | 233 | 0.0 | 0.0 | 0.00 | 0.00 | 0.00 | 95 | 1020.1 |
| 20260901044925 | 23 | 250 | 0.0 | 0.0 | 0.00 | 0.00 | 0.00 | 94 | 1020.1 |
| 20260901044421 | 23 | 250 | 0.0 | 0.0 | 0.00 | 0.00 | 0.00 | 94 | 1020.1 |
| 20260901043917 | 23 | 250 | 0.0 | 0.0 | 0.00 | 0.00 | 0.00 | 94 | 1020.3 |
| 20260901043413 | 23 | 250 | 0.0 | 0.0 | 0.00 | 0.00 | 0.00 | 93 | 1020.0 |
| 20260901042913 | 23 | 250 | 0.0 | 0.0 | 0.00 | 0.00 | 0.00 | 93 | 1020.2 |
| 20260901042412 | 24 | 254 | 0.0 | 0.0 | 0.00 | 0.00 | 0.00 | 92 | 1020.0 |
| 20260901041909 | 24 | 254 | 0.0 | 0.0 | 0.00 | 0.00 | 0.00 | 92 | 1020.0 |
| 20260901041409 | 24 | 231 | 0.0 | 0.0 | 0.00 | 0.00 | 0.00 | 91 | 1019.9 |
| 20260901040908 | 25 | 207 | 0.0 | 0.0 | 0.00 | 0.00 | 0.00 | 90 | 1019.8 |
| 20260901040407 | 25 | 212 | 0.0 | 0.0 | 0.00 | 0.00 | 0.00 | 90 | 1019.9 |
| 20260901035902 | 25 | 216 | 0.0 | 1.6 | 0.00 | 0.00 | 0.00 | 90 | 1019.9 |
| 20260901035401 | 25 | 178 | 0.0 | 3.2 | 0.00 | 0.00 | 0.00 | 90 | 1019.9 |
| 20260901034859 | 25 | 216 | 0.0 | 0.0 | 0.00 | 0.00 | 0.00 | 89 | 1019.8 |
| 20260901034354 | 25 | 212 | 0.0 | 1.6 | 0.00 | 0.00 | 0.00 | 89 | 1019.8 |
| 20260901033849 | 25 | 212 | 0.0 | 1.6 | 0.00 | 0.00 | 0.00 | 90 | 1019.9 |
| 20260901033349 | 25 | 185 | 0.0 | 0.0 | 0.00 | 0.00 | 0.00 | 90 | 1019.9 |
| 20260901032847 | 25 | 205 | 1.6 | 3.2 | 0.00 | 0.00 | 0.00 | 90 | 1019.7 |
| 20260901032346 | 24 | 215 | 0.0 | 0.0 | 0.00 | 0.00 | 0.00 | 91 | 1019.7 |
| 20260901031841 | 24 | 205 | 0.0 | 0.0 | 0.00 | 0.00 | 0.00 | 91 | 1019.9 |
| 20260901031337 | 24 | 231 | 0.0 | 0.0 | 0.00 | 0.00 | 0.00 | 91 | 1019.7 |
| 20260901030836 | 25 | 230 | 0.0 | 0.0 | 0.00 | 0.00 | 0.00 | 91 | 1019.9 |
| 20260901030332 | 25 | 224 | 0.0 | 0.0 | 0.00 | 0.00 | 0.00 | 90 | 1019.9 |
| 20260901025831 | 25 | 231 | 0.0 | 0.0 | 0.00 | 0.00 | 0.00 | 90 | 1020.2 |
| 20260901025326 | 25 | 231 | 0.0 | 0.0 | 0.00 | 0.00 | 0.00 | 90 | 1019.9 |
| 20260901024821 | 25 | 221 | 0.0 | 0.0 | 0.00 | 0.00 | 0.00 | 89 | 1019.8 |
| 20260901024320 | 25 | 219 | 0.0 | 0.0 | 0.00 | 0.00 | 0.00 | 88 | 1020.0 |
| 20260901023819 | 25 | 184 | 0.0 | 0.0 | 0.00 | 0.00 | 0.00 | 88 | 1019.8 |
| 20260901023314 | 25 | 149 | 1.6 | 1.6 | 0.00 | 0.00 | 0.00 | 87 | 1019.9 |
| 20260901022809 | 25 | 205 | 0.0 | 0.0 | 0.00 | 0.00 | 0.00 | 87 | 1020.0 |
| 20260901022306 | 25 | 202 | 0.0 | 1.6 | 0.00 | 0.00 | 0.00 | 86 | 1019.9 |
| 20260901021800 | 25 | 170 | 1.6 | 1.6 | 0.00 | 0.00 | 0.00 | 87 | 1020.0 |
| 20260901021255 | 25 | 193 | 0.0 | 0.0 | 0.00 | 0.00 | 0.00 | 87 | 1019.9 |
| 20260901020751 | 25 | 217 | 0.0 | 0.0 | 0.00 | 0.00 | 0.00 | 88 | 1020.1 |
| 20260901020246 | 25 | 216 | 0.0 | 0.0 | 0.00 | 0.00 | 0.00 | 88 | 1020.0 |
| 20260901015740 | 25 | 216 | 0.0 | 0.0 | 0.00 | 0.00 | 0.00 | 87 | 1020.0 |
| 20260901015237 | 25 | 203 | 0.0 | 0.0 | 0.00 | 0.00 | 0.00 | 87 | 1020.1 |
| 20260901014736 | 25 | 205 | 0.0 | 0.0 | 0.00 | 0.00 | 0.00 | 87 | 1020.1 |
| 20260901014232 | 25 | 242 | 0.0 | 0.0 | 0.00 | 0.00 | 0.00 | 87 | 1020.0 |
| 20260901013728 | 25 | 224 | 0.0 | 0.0 | 0.00 | 0.00 | 0.00 | 87 | 1020.0 |
| 20260901013223 | 25 | 213 | 0.0 | 0.0 | 0.00 | 0.00 | 0.00 | 86 | 1020.0 |
| 20260901012719 | 26 | 200 | 0.0 | 0.0 | 0.00 | 0.00 | 0.00 | 86 | 1020.0 |
| 20260901012218 | 26 | 235 | 0.0 | 0.0 | 0.00 | 0.00 | 0.00 | 85 | 1020.1 |
| 20260901011714 | 26 | 331 | 0.0 | 1.6 | 0.00 | 0.00 | 0.00 | 85 | 1019.9 |
| 20260901011214 | 26 | 191 | 0.0 | 0.0 | 0.00 | 0.00 | 0.00 | 84 | 1020.0 |
| 20260901010708 | 26 | 127 | 0.0 | 3.2 | 0.00 | 0.00 | 0.00 | 84 | 1019.8 |
| 20260901010203 | 26 | 216 | 0.0 | 1.6 | 0.00 | 0.00 | 0.00 | 83 | 1020.0 |
| 20260901005702 | 26 | 217 | 0.0 | 3.2 | 0.00 | 0.00 | 0.00 | 82 | 1019.9 |
| 20260901005158 | 27 | 227 | 0.0 | 1.6 | 0.00 | 0.00 | 0.00 | 81 | 1019.8 |
| 20260901004657 | 27 | 41 | 1.6 | 3.2 | 0.00 | 0.00 | 0.00 | 81 | 1019.9 |
| 20260901004151 | 27 | 193 | 1.6 | 3.2 | 0.00 | 0.00 | 0.00 | 80 | 1019.9 |
| 20260901003646 | 27 | 258 | 0.0 | 11.3 | 0.00 | 0.00 | 0.00 | 80 | 1019.7 |
| 20260901003145 | 27 | 164 | 0.0 | 0.0 | 0.00 | 0.00 | 0.00 | 81 | 1019.8 |
| 20260901002640 | 27 | 13 | 1.6 | 1.6 | 0.00 | 0.00 | 0.00 | 80 | 1019.8 |
| 20260901002134 | 27 | 235 | 0.0 | 0.0 | 0.00 | 0.00 | 0.00 | 80 | 1019.8 |
| 20260901001630 | 27 | 200 | 0.0 | 0.0 | 0.00 | 0.00 | 0.00 | 80 | 1019.7 |
| 20260901001125 | 27 | 201 | 0.0 | 1.6 | 0.00 | 0.00 | 0.00 | 79 | 1019.5 |
| 20260901000620 | 27 | 218 | 0.0 | 0.0 | 0.00 | 0.00 | 0.00 | 78 | 1019.5 |
| 20260901000115 | 27 | 242 | 0.0 | 0.0 | 0.00 | 0.00 | 0.00 | 77 | 1019.5 |
| 20260831235609 | 27 | 350 | 0.0 | 1.6 | 0.00 | 0.00 | 0.00 | 77 | 1019.3 |
| 20260831235104 | 27 | 250 | 0.0 | 0.0 | 0.00 | 0.00 | 0.00 | 77 | 1019.4 |
| 20260831234558 | 27 | 257 | 0.0 | 0.0 | 0.00 | 0.00 | 0.00 | 76 | 1019.5 |
| 20260831234054 | 28 | 259 | 0.0 | 0.0 | 0.00 | 0.00 | 0.00 | 75 | 1019.2 |
| 20260831233549 | 28 | 264 | 0.0 | 0.0 | 0.00 | 0.00 | 0.00 | 75 | 1019.3 |
| 20260831233045 | 28 | 256 | 0.0 | 0.0 | 0.00 | 0.00 | 0.00 | 74 | 1019.4 |
| 20260831232540 | 28 | 254 | 0.0 | 0.0 | 0.00 | 0.00 | 0.00 | 73 | 1019.4 |
| 20260831232035 | 28 | 252 | 0.0 | 0.0 | 0.00 | 0.00 | 0.00 | 72 | 1019.3 |
| 20260831231532 | 28 | 242 | 0.0 | 0.0 | 0.00 | 0.00 | 0.00 | 71 | 1019.1 |
| 20260831231027 | 29 | 240 | 0.0 | 1.6 | 0.00 | 0.00 | 0.00 | 70 | 1019.3 |
| 20260831230522 | 29 | 252 | 0.0 | 0.0 | 0.00 | 0.00 | 0.00 | 69 | 1019.1 |
| 20260831230017 | 30 | 248 | 0.0 | 0.0 | 0.00 | 0.00 | 0.00 | 68 | 1019.2 |
| 20260831225513 | 30 | 255 | 0.0 | 1.6 | 0.00 | 0.00 | 0.00 | 68 | 1019.1 |
| 20260831225012 | 30 | 248 | 0.0 | 1.6 | 0.00 | 0.00 | 0.00 | 67 | 1019.2 |
| 20260831224507 | 30 | 309 | 0.0 | 0.0 | 0.00 | 0.00 | 0.00 | 67 | 1019.0 |
| 20260831224002 | 30 | 287 | 0.0 | 1.6 | 0.00 | 0.00 | 0.00 | 66 | 1019.1 |
| 20260831223458 | 30 | 264 | 0.0 | 1.6 | 0.00 | 0.00 | 0.00 | 66 | 1019.1 |
| 20260831222954 | 31 | 266 | 1.6 | 4.8 | 0.00 | 0.00 | 0.00 | 65 | 1019.1 |
| 20260831222450 | 31 | 311 | 0.0 | 3.2 | 0.00 | 0.00 | 0.00 | 64 | 1019.3 |
| 20260831221949 | 31 | 250 | 1.6 | 1.6 | 0.00 | 0.00 | 0.00 | 63 | 1019.4 |
| 20260831221445 | 31 | 285 | 3.2 | 4.8 | 0.00 | 0.00 | 0.00 | 62 | 1019.3 |
| 20260831220940 | 31 | 337 | 0.0 | 3.2 | 0.00 | 0.00 | 0.00 | 61 | 1019.1 |
| 20260831220436 | 32 | 208 | 0.0 | 3.2 | 0.00 | 0.00 | 0.00 | 60 | 1019.0 |
| 20260831215931 | 32 | 203 | 0.0 | 1.6 | 0.00 | 0.00 | 0.00 | 59 | 1019.1 |
| 20260831215426 | 32 | 13 | 6.4 | 6.4 | 0.00 | 0.00 | 0.00 | 57 | 1019.1 |
| 20260831214923 | 32 | 294 | 1.6 | 4.8 | 0.00 | 0.00 | 0.00 | 58 | 1019.0 |
| 20260831214420 | 32 | 209 | 0.0 | 1.6 | 0.00 | 0.00 | 0.00 | 58 | 1019.1 |
| 20260831213915 | 32 | 322 | 0.0 | 0.0 | 0.00 | 0.00 | 0.00 | 57 | 1019.1 |
| 20260831213412 | 33 | 240 | 0.0 | 1.6 | 0.00 | 0.00 | 0.00 | 54 | 1019.0 |
| 20260831212912 | 33 | 184 | 0.0 | 0.0 | 0.00 | 0.00 | 0.00 | 53 | 1018.9 |
| 20260831212408 | 33 | 356 | 3.2 | 6.4 | 0.00 | 0.00 | 0.00 | 52 | 1019.2 |
| 20260831211907 | 33 | 305 | 1.6 | 1.6 | 0.00 | 0.00 | 0.00 | 54 | 1019.0 |
| 20260831211402 | 33 | 45 | 1.6 | 4.8 | 0.00 | 0.00 | 0.00 | 54 | 1019.1 |
| 20260831210856 | 34 | 237 | 1.6 | 3.2 | 0.00 | 0.00 | 0.00 | 52 | 1019.0 |
| 20260831210352 | 34 | 353 | 1.6 | 3.2 | 0.00 | 0.00 | 0.00 | 53 | 1019.0 |
| 20260831205847 | 34 | 245 | 0.0 | 1.6 | 0.00 | 0.00 | 0.00 | 51 | 1019.1 |
| 20260831205343 | 33 | 240 | 0.0 | 3.2 | 0.00 | 0.00 | 0.00 | 53 | 1019.0 |
| 20260831204838 | 33 | 220 | 1.6 | 1.6 | 0.00 | 0.00 | 0.00 | 52 | 1019.1 |
| 20260831204337 | 35 | 325 | 3.2 | 3.2 | 0.00 | 0.00 | 0.00 | 54 | 1019.0 |
| 20260831203836 | 33 | 229 | 0.0 | 0.0 | 0.00 | 0.00 | 0.00 | 54 | 1019.0 |
| 20260831203331 | 33 | 248 | 1.6 | 1.6 | 0.00 | 0.00 | 0.00 | 54 | 1019.2 |
| 20260831202829 | 33 | 331 | 8.0 | 9.7 | 0.00 | 0.00 | 0.00 | 56 | 1019.0 |
| 20260831202324 | 33 | 7 | 4.8 | 4.8 | 0.00 | 0.00 | 0.00 | 56 | 1019.0 |
| 20260831201818 | 33 | 229 | 0.0 | 1.6 | 0.00 | 0.00 | 0.00 | 57 | 1019.1 |
| 20260831201317 | 33 | 5 | 6.4 | 6.4 | 0.00 | 0.00 | 0.00 | 54 | 1019.1 |
| 20260831200813 | 33 | 247 | 0.0 | 3.2 | 0.00 | 0.00 | 0.00 | 57 | 1018.9 |
| 20260831200308 | 32 | 239 | 1.6 | 1.6 | 0.00 | 0.00 | 0.00 | 58 | 1018.9 |
| 20260831195803 | 32 | 11 | 3.2 | 4.8 | 0.00 | 0.00 | 0.00 | 58 | 1019.1 |
| 20260831195259 | 33 | 139 | 1.6 | 4.8 | 0.00 | 0.00 | 0.00 | 56 | 1019.0 |
| 20260831194754 | 35 | 222 | 0.0 | 3.2 | 0.00 | 0.00 | 0.00 | 53 | 1019.1 |
| 20260831194249 | 35 | 349 | 1.6 | 3.2 | 0.00 | 0.00 | 0.00 | 53 | 1019.3 |
| 20260831193743 | 33 | 233 | 0.0 | 1.6 | 0.00 | 0.00 | 0.00 | 54 | 1019.3 |
| 20260831193239 | 33 | 350 | 1.6 | 3.2 | 0.00 | 0.00 | 0.00 | 57 | 1019.2 |
| 20260831192733 | 33 | 336 | 1.6 | 3.2 | 0.00 | 0.00 | 0.00 | 54 | 1019.2 |
| 20260831192228 | 34 | 210 | 1.6 | 9.7 | 0.00 | 0.00 | 0.00 | 52 | 1019.2 |
| 20260831191725 | 34 | 220 | 0.0 | 1.6 | 0.00 | 0.00 | 0.00 | 53 | 1019.2 |
| 20260831191221 | 35 | 14 | 1.6 | 4.8 | 0.00 | 0.00 | 0.00 | 51 | 1019.4 |
| 20260831190716 | 35 | 228 | 1.6 | 3.2 | 0.00 | 0.00 | 0.00 | 53 | 1019.5 |
| 20260831190215 | 33 | 355 | 0.0 | 1.6 | 0.00 | 0.00 | 0.00 | 54 | 1019.6 |
| 20260831185710 | 34 | 235 | 0.0 | 1.6 | 0.00 | 0.00 | 0.00 | 53 | 1019.7 |
| 20260831185206 | 34 | 267 | 0.0 | 3.2 | 0.00 | 0.00 | 0.00 | 53 | 1019.7 |
| 20260831184704 | 34 | 233 | 0.0 | 1.6 | 0.00 | 0.00 | 0.00 | 56 | 1019.7 |
| 20260831184201 | 34 | 323 | 3.2 | 4.8 | 0.00 | 0.00 | 0.00 | 54 | 1019.7 |
| 20260831183659 | 34 | 249 | 4.8 | 4.8 | 0.00 | 0.00 | 0.00 | 54 | 1019.9 |
| 20260831183154 | 34 | 262 | 0.0 | 3.2 | 0.00 | 0.00 | 0.00 | 55 | 1019.9 |
| 20260831182653 | 33 | 5 | 1.6 | 4.8 | 0.00 | 0.00 | 0.00 | 59 | 1019.8 |
| 20260831182149 | 33 | 122 | 1.6 | 1.6 | 0.00 | 0.00 | 0.00 | 57 | 1019.8 |
| 20260831181643 | 33 | 344 | 3.2 | 4.8 | 0.00 | 0.00 | 0.00 | 57 | 1019.6 |
| 20260831181137 | 33 | 166 | 0.0 | 3.2 | 0.00 | 0.00 | 0.00 | 58 | 1019.9 |
| 20260831180633 | 34 | 246 | 0.0 | 0.0 | 0.00 | 0.00 | 0.00 | 56 | 1020.1 |
| 20260831180128 | 33 | 49 | 1.6 | 3.2 | 0.00 | 0.00 | 0.00 | 57 | 1020.0 |
| 20260831175622 | 33 | 210 | 1.6 | 1.6 | 0.00 | 0.00 | 0.00 | 59 | 1020.0 |
| 20260831175119 | 32 | 267 | 0.0 | 4.8 | 0.00 | 0.00 | 0.00 | 62 | 1020.2 |
| 20260831174614 | 33 | 243 | 0.0 | 3.2 | 0.00 | 0.00 | 0.00 | 62 | 1020.2 |
| 20260831174113 | 33 | 355 | 4.8 | 6.4 | 0.00 | 0.00 | 0.00 | 57 | 1020.1 |
| 20260831173612 | 33 | 229 | 1.6 | 1.6 | 0.00 | 0.00 | 0.00 | 60 | 1020.2 |
| 20260831173108 | 32 | 89 | 3.2 | 3.2 | 0.00 | 0.00 | 0.00 | 61 | 1020.1 |
| 20260831172603 | 32 | 240 | 1.6 | 6.4 | 0.00 | 0.00 | 0.00 | 64 | 1020.3 |
| 20260831172058 | 32 | 177 | 0.0 | 3.2 | 0.00 | 0.00 | 0.00 | 66 | 1020.3 |
| 20260831171553 | 32 | 258 | 1.6 | 4.8 | 0.00 | 0.00 | 0.00 | 61 | 1020.2 |
| 20260831171050 | 32 | 243 | 0.0 | 3.2 | 0.00 | 0.00 | 0.00 | 64 | 1020.2 |
| 20260831170546 | 32 | 350 | 4.8 | 6.4 | 0.00 | 0.00 | 0.00 | 62 | 1020.3 |
| 20260831170044 | 32 | 180 | 0.0 | 1.6 | 0.00 | 0.00 | 0.00 | 61 | 1020.3 |
| 20260831165543 | 32 | 241 | 0.0 | 0.0 | 0.00 | 0.00 | 0.00 | 62 | 1020.4 |
| 20260831165040 | 32 | 242 | 1.6 | 3.2 | 0.00 | 0.00 | 0.00 | 64 | 1020.5 |
| 20260831164536 | 32 | 340 | 1.6 | 4.8 | 0.00 | 0.00 | 0.00 | 62 | 1020.5 |
| 20260831164031 | 32 | 17 | 1.6 | 3.2 | 0.00 | 0.00 | 0.00 | 62 | 1020.5 |
| 20260831163526 | 32 | 282 | 1.6 | 4.8 | 0.00 | 0.00 | 0.00 | 61 | 1020.5 |
| 20260831163021 | 31 | 195 | 0.0 | 0.0 | 0.00 | 0.00 | 0.00 | 67 | 1020.6 |
| 20260831162515 | 32 | 265 | 1.6 | 3.2 | 0.00 | 0.00 | 0.00 | 65 | 1020.6 |
| 20260831162013 | 33 | 144 | 0.0 | 4.8 | 0.00 | 0.00 | 0.00 | 62 | 1020.7 |
| 20260831161509 | 32 | 250 | 1.6 | 3.2 | 0.00 | 0.00 | 0.00 | 63 | 1020.8 |
| 20260831161005 | 32 | 303 | 0.0 | 1.6 | 0.00 | 0.00 | 0.00 | 63 | 1020.8 |
| 20260831160505 | 32 | 283 | 0.0 | 3.2 | 0.00 | 0.00 | 0.00 | 65 | 1020.6 |
| 20260831160000 | 32 | 349 | 1.6 | 3.2 | 0.00 | 0.00 | 0.00 | 62 | 1020.6 |
| 20260831155454 | 32 | 215 | 0.0 | 3.2 | 0.00 | 0.00 | 0.00 | 64 | 1020.8 |
| 20260831154950 | 32 | 335 | 3.2 | 3.2 | 0.00 | 0.00 | 0.00 | 61 | 1020.7 |
| 20260831154446 | 32 | 149 | 1.6 | 1.6 | 0.00 | 0.00 | 0.00 | 65 | 1020.7 |
| 20260831153945 | 31 | 215 | 1.6 | 1.6 | 0.00 | 0.00 | 0.00 | 66 | 1020.7 |
| 20260831153440 | 32 | 91 | 1.6 | 1.6 | 0.00 | 0.00 | 0.00 | 65 | 1020.7 |
| 20260831152937 | 32 | 22 | 3.2 | 4.8 | 0.00 | 0.00 | 0.00 | 66 | 1020.9 |
| 20260831152432 | 31 | 80 | 0.0 | 0.0 | 0.00 | 0.00 | 0.00 | 68 | 1020.9 |
| 20260831151927 | 31 | 323 | 1.6 | 3.2 | 0.00 | 0.00 | 0.00 | 69 | 1020.8 |
| 20260831151426 | 30 | 181 | 0.0 | 4.8 | 0.00 | 0.00 | 0.00 | 71 | 1020.8 |
| 20260831150922 | 30 | 309 | 0.0 | 4.8 | 0.00 | 0.00 | 0.00 | 71 | 1020.8 |
| 20260831150417 | 30 | 251 | 0.0 | 1.6 | 0.00 | 0.00 | 0.00 | 70 | 1020.9 |
| 20260831145916 | 31 | 339 | 4.8 | 4.8 | 0.00 | 0.00 | 0.00 | 70 | 1021.1 |
| 20260831145413 | 30 | 32 | 0.0 | 4.8 | 0.00 | 0.00 | 0.00 | 71 | 1020.7 |
| 20260831144908 | 30 | 134 | 0.0 | 6.4 | 0.00 | 0.00 | 0.00 | 73 | 1020.9 |
| 20260831144404 | 30 | 67 | 0.0 | 1.6 | 0.00 | 0.00 | 0.00 | 72 | 1020.9 |
| 20260831143858 | 30 | 243 | 0.0 | 1.6 | 0.00 | 0.00 | 0.00 | 72 | 1021.0 |
| 20260831143348 | 29 | 2 | 3.2 | 6.4 | 0.00 | 0.00 | 0.00 | 73 | 1021.1 |
| 20260831142843 | 30 | 247 | 0.0 | 1.6 | 0.00 | 0.00 | 0.00 | 72 | 1021.1 |
| 20260831142338 | 30 | 296 | 1.6 | 3.2 | 0.00 | 0.00 | 0.00 | 74 | 1020.8 |
| 20260831141832 | 29 | 336 | 1.6 | 3.2 | 0.00 | 0.00 | 0.00 | 73 | 1020.8 |
| 20260831141327 | 29 | 218 | 1.6 | 3.2 | 0.00 | 0.00 | 0.00 | 74 | 1021.1 |
| 20260831140822 | 29 | 277 | 1.6 | 4.8 | 0.00 | 0.00 | 0.00 | 74 | 1020.9 |
| 20260831140316 | 29 | 305 | 1.6 | 3.2 | 0.00 | 0.00 | 0.00 | 75 | 1021.0 |
| 20260831135815 | 28 | 219 | 0.0 | 4.8 | 0.00 | 0.00 | 0.00 | 75 | 1021.1 |
| 20260831135310 | 28 | 324 | 0.0 | 1.6 | 0.00 | 0.00 | 0.00 | 77 | 1021.0 |
| 20260831134805 | 28 | 214 | 1.6 | 1.6 | 0.00 | 0.00 | 0.00 | 78 | 1021.1 |
| 20260831134302 | 28 | 336 | 3.2 | 6.4 | 0.00 | 0.00 | 0.00 | 78 | 1021.0 |
| 20260831133801 | 28 | 236 | 3.2 | 4.8 | 0.00 | 0.00 | 0.00 | 78 | 1021.2 |
| 20260831133301 | 27 | 226 | 0.0 | 3.2 | 0.00 | 0.00 | 0.00 | 78 | 1021.2 |
| 20260831132755 | 27 | 0 | 0.0 | 3.2 | 0.00 | 0.00 | 0.00 | 80 | 1020.9 |
| 20260831132250 | 27 | 294 | 0.0 | 4.8 | 0.00 | 0.00 | 0.00 | 80 | 1020.9 |
| 20260831131744 | 28 | 305 | 3.2 | 4.8 | 0.00 | 0.00 | 0.00 | 78 | 1021.0 |
| 20260831131242 | 27 | 97 | 0.0 | 1.6 | 0.00 | 0.00 | 0.00 | 79 | 1020.8 |
| 20260831130736 | 27 | 354 | 0.0 | 6.4 | 0.00 | 0.00 | 0.00 | 81 | 1020.9 |
| 20260831130231 | 27 | 228 | 1.6 | 1.6 | 0.00 | 0.00 | 0.00 | 79 | 1020.8 |
| 20260831125730 | 27 | 212 | 0.0 | 1.6 | 0.00 | 0.00 | 0.00 | 80 | 1020.8 |
| 20260831125226 | 27 | 279 | 0.0 | 4.8 | 0.00 | 0.00 | 0.00 | 82 | 1020.8 |
| 20260831124721 | 27 | 104 | 0.0 | 1.6 | 0.00 | 0.00 | 0.00 | 83 | 1020.8 |
| 20260831124217 | 26 | 343 | 0.0 | 1.6 | 0.00 | 0.00 | 0.00 | 83 | 1020.9 |
| 20260831123716 | 26 | 113 | 0.0 | 0.0 | 0.00 | 0.00 | 0.00 | 83 | 1020.9 |
| 20260831123215 | 26 | 113 | 0.0 | 1.6 | 0.00 | 0.00 | 0.00 | 84 | 1020.9 |
| 20260831122710 | 26 | 113 | 0.0 | 3.2 | 0.00 | 0.00 | 0.00 | 83 | 1021.0 |
| 20260831122206 | 26 | 117 | 0.0 | 0.0 | 0.00 | 0.00 | 0.00 | 84 | 1020.9 |
| 20260831121705 | 26 | 117 | 0.0 | 1.6 | 0.00 | 0.00 | 0.00 | 84 | 1020.8 |
| 20260831121202 | 25 | 147 | 0.0 | 1.6 | 0.00 | 0.00 | 0.00 | 86 | 1020.9 |
| 20260831120657 | 25 | 147 | 0.0 | 1.6 | 0.00 | 0.00 | 0.00 | 88 | 1020.9 |
| 20260831120151 | 23 | 216 | 0.0 | 0.0 | 0.00 | 0.00 | 0.00 | 92 | 1020.7 |
| 20260831115647 | 23 | 206 | 0.0 | 0.0 | 0.00 | 0.00 | 0.00 | 93 | 1020.8 |
| 20260831115143 | 23 | 184 | 0.0 | 1.6 | 0.00 | 0.00 | 0.00 | 94 | 1020.6 |
| 20260831114642 | 22 | 210 | 0.0 | 0.0 | 0.00 | 0.00 | 0.00 | 97 | 1020.6 |
| 20260831114137 | 22 | 209 | 0.0 | 0.0 | 0.00 | 0.00 | 0.00 | 97 | 1020.6 |
| 20260831113637 | 22 | 213 | 0.0 | 0.0 | 0.00 | 0.00 | 0.00 | 98 | 1020.4 |
| 20260831113132 | 22 | 226 | 0.0 | 0.0 | 0.00 | 0.00 | 0.00 | 98 | 1020.5 |
| 20260831112631 | 22 | 225 | 0.0 | 0.0 | 0.00 | 0.00 | 0.00 | 99 | 1020.4 |
| 20260831112126 | 22 | 235 | 0.0 | 0.0 | 0.00 | 0.00 | 0.00 | 99 | 1020.3 |
| 20260831111622 | 21 | 235 | 0.0 | 0.0 | 0.00 | 0.00 | 0.00 | 99 | 1020.5 |
| 20260831111118 | 21 | 311 | 0.0 | 0.0 | 0.00 | 0.00 | 0.00 | 99 | 1020.4 |
| 20260831110613 | 21 | 240 | 0.0 | 0.0 | 0.00 | 0.00 | 0.00 | 99 | 1020.3 |
| 20260831110109 | 21 | 240 | 0.0 | 0.0 | 0.00 | 0.00 | 0.00 | 99 | 1020.3 |
| 20260831105607 | 21 | 229 | 0.0 | 0.0 | 0.00 | 0.00 | 0.00 | 99 | 1020.3 |
| 20260831105102 | 21 | 232 | 0.0 | 0.0 | 0.00 | 0.00 | 0.00 | 99 | 1020.3 |
| 20260831104558 | 21 | 239 | 0.0 | 0.0 | 0.00 | 0.00 | 0.00 | 99 | 1020.4 |
| 20260831104054 | 21 | 240 | 0.0 | 0.0 | 0.00 | 0.00 | 0.00 | 99 | 1020.2 |
| 20260831103549 | 21 | 240 | 0.0 | 0.0 | 0.00 | 0.00 | 0.00 | 99 | 1020.3 |
| 20260831103045 | 21 | 241 | 0.0 | 0.0 | 0.00 | 0.00 | 0.00 | 99 | 1020.3 |
| 20260831102544 | 21 | 240 | 0.0 | 0.0 | 0.00 | 0.00 | 0.00 | 99 | 1020.2 |
| 20260831102040 | 21 | 243 | 0.0 | 0.0 | 0.00 | 0.00 | 0.00 | 99 | 1020.1 |
| 20260831101535 | 21 | 242 | 0.0 | 0.0 | 0.00 | 0.00 | 0.00 | 99 | 1020.1 |
| 20260831101031 | 21 | 240 | 0.0 | 0.0 | 0.00 | 0.00 | 0.00 | 98 | 1020.0 |
| 20260831100526 | 21 | 241 | 0.0 | 0.0 | 0.00 | 0.00 | 0.00 | 98 | 1019.9 |
| 20260831100023 | 21 | 230 | 0.0 | 0.0 | 0.00 | 0.00 | 0.00 | 98 | 1019.7 |
| 20260831095521 | 21 | 239 | 0.0 | 0.0 | 0.00 | 0.00 | 0.00 | 98 | 1019.9 |
| 20260831095016 | 21 | 243 | 0.0 | 0.0 | 0.00 | 0.00 | 0.00 | 98 | 1019.9 |
| 20260831094512 | 21 | 245 | 0.0 | 0.0 | 0.00 | 0.00 | 0.00 | 98 | 1019.9 |
| 20260831094008 | 21 | 239 | 0.0 | 0.0 | 0.00 | 0.00 | 0.00 | 98 | 1020.1 |
| 20260831093508 | 21 | 237 | 0.0 | 0.0 | 0.00 | 0.00 | 0.00 | 98 | 1019.9 |
| 20260831093004 | 21 | 239 | 0.0 | 0.0 | 0.00 | 0.00 | 0.00 | 98 | 1020.2 |
| 20260831092459 | 21 | 236 | 0.0 | 0.0 | 0.00 | 0.00 | 0.00 | 98 | 1020.2 |
| 20260831091954 | 22 | 239 | 0.0 | 0.0 | 0.00 | 0.00 | 0.00 | 98 | 1019.9 |
| 20260831091450 | 22 | 239 | 0.0 | 0.0 | 0.00 | 0.00 | 0.00 | 98 | 1020.0 |
| 20260831090944 | 22 | 242 | 0.0 | 0.0 | 0.00 | 0.00 | 0.00 | 97 | 1020.1 |
| 20260831090441 | 22 | 243 | 0.0 | 0.0 | 0.00 | 0.00 | 0.00 | 97 | 1020.2 |
| 20260831085937 | 22 | 231 | 0.0 | 0.0 | 0.00 | 0.00 | 0.00 | 97 | 1020.1 |
| 20260831085432 | 22 | 249 | 0.0 | 0.0 | 0.00 | 0.00 | 0.00 | 97 | 1020.0 |
| 20260831084931 | 22 | 250 | 0.0 | 0.0 | 0.00 | 0.00 | 0.00 | 96 | 1020.1 |
| 20260831084427 | 22 | 249 | 0.0 | 0.0 | 0.00 | 0.00 | 0.00 | 96 | 1020.2 |
| 20260831083924 | 22 | 251 | 0.0 | 0.0 | 0.00 | 0.00 | 0.00 | 96 | 1020.1 |
| 20260831083419 | 22 | 250 | 0.0 | 0.0 | 0.00 | 0.00 | 0.00 | 95 | 1020.0 |
| 20260831082918 | 22 | 247 | 0.0 | 0.0 | 0.00 | 0.00 | 0.00 | 95 | 1019.9 |
| 20260831082412 | 22 | 240 | 0.0 | 0.0 | 0.00 | 0.00 | 0.00 | 95 | 1019.9 |
| 20260831081908 | 22 | 225 | 0.0 | 0.0 | 0.00 | 0.00 | 0.00 | 94 | 1020.0 |
| 20260831081403 | 23 | 212 | 0.0 | 0.0 | 0.00 | 0.00 | 0.00 | 94 | 1019.9 |
| 20260831080859 | 23 | 211 | 0.0 | 0.0 | 0.00 | 0.00 | 0.00 | 93 | 1019.9 |
| 20260831080354 | 23 | 177 | 0.0 | 0.0 | 0.00 | 0.00 | 0.00 | 94 | 1020.0 |
| 20260831075849 | 23 | 167 | 0.0 | 0.0 | 0.00 | 0.00 | 0.00 | 94 | 1020.0 |
| 20260831075344 | 23 | 167 | 0.0 | 0.0 | 0.00 | 0.00 | 0.00 | 93 | 1020.0 |
| 20260831074839 | 23 | 172 | 0.0 | 0.0 | 0.00 | 0.00 | 0.00 | 93 | 1019.8 |
| 20260831074338 | 23 | 173 | 0.0 | 0.0 | 0.00 | 0.00 | 0.00 | 93 | 1019.9 |
| 20260831073834 | 23 | 171 | 0.0 | 0.0 | 0.00 | 0.00 | 0.00 | 93 | 1020.1 |
| 20260831073333 | 23 | 152 | 0.0 | 1.6 | 0.00 | 0.00 | 0.00 | 93 | 1020.1 |
| 20260831072828 | 23 | 153 | 0.0 | 0.0 | 0.00 | 0.00 | 0.00 | 93 | 1020.0 |
| 20260831072324 | 23 | 183 | 0.0 | 0.0 | 0.00 | 0.00 | 0.00 | 93 | 1020.0 |
| 20260831071820 | 23 | 185 | 0.0 | 0.0 | 0.00 | 0.00 | 0.00 | 93 | 1020.2 |
| 20260831071319 | 23 | 149 | 0.0 | 0.0 | 0.00 | 0.00 | 0.00 | 93 | 1020.2 |
| 20260831070814 | 23 | 150 | 0.0 | 1.6 | 0.00 | 0.00 | 0.00 | 93 | 1020.2 |
| 20260831070312 | 23 | 154 | 0.0 | 0.0 | 0.00 | 0.00 | 0.00 | 93 | 1020.1 |
| 20260831065812 | 23 | 155 | 0.0 | 0.0 | 0.00 | 0.00 | 0.00 | 94 | 1020.1 |
| 20260831065310 | 23 | 154 | 0.0 | 0.0 | 0.00 | 0.00 | 0.00 | 94 | 1020.0 |
| 20260831064806 | 22 | 154 | 0.0 | 0.0 | 0.00 | 0.00 | 0.00 | 95 | 1020.3 |
| 20260831064301 | 22 | 155 | 0.0 | 0.0 | 0.00 | 0.00 | 0.00 | 95 | 1020.3 |
| 20260831063757 | 22 | 154 | 0.0 | 0.0 | 0.00 | 0.00 | 0.00 | 95 | 1020.3 |
| 20260831063251 | 22 | 155 | 0.0 | 0.0 | 0.00 | 0.00 | 0.00 | 95 | 1020.3 |
| 20260831062746 | 22 | 186 | 0.0 | 0.0 | 0.00 | 0.00 | 0.00 | 95 | 1020.3 |
| 20260831062241 | 22 | 239 | 0.0 | 0.0 | 0.00 | 0.00 | 0.00 | 95 | 1020.2 |
| 20260831061739 | 22 | 248 | 0.0 | 0.0 | 0.00 | 0.00 | 0.00 | 95 | 1020.0 |
| 20260831061234 | 22 | 248 | 0.0 | 0.0 | 0.00 | 0.00 | 0.00 | 95 | 1020.2 |
| 20260831060730 | 22 | 204 | 0.0 | 0.0 | 0.00 | 0.00 | 0.00 | 94 | 1020.3 |
| 20260831060225 | 23 | 205 | 0.0 | 0.0 | 0.00 | 0.00 | 0.00 | 94 | 1020.3 |
| 20260831055725 | 23 | 210 | 0.0 | 0.0 | 0.00 | 0.00 | 0.00 | 94 | 1020.5 |
| 20260831055224 | 23 | 248 | 0.0 | 0.0 | 0.00 | 0.00 | 0.00 | 93 | 1020.4 |
| 20260831054719 | 23 | 248 | 0.0 | 0.0 | 0.00 | 0.00 | 0.00 | 93 | 1020.3 |
| 20260831054215 | 23 | 248 | 0.0 | 0.0 | 0.00 | 0.00 | 0.00 | 93 | 1020.4 |
| 20260831053713 | 23 | 200 | 0.0 | 0.0 | 0.00 | 0.00 | 0.00 | 92 | 1020.3 |
| 20260831053213 | 23 | 200 | 0.0 | 0.0 | 0.00 | 0.00 | 0.00 | 92 | 1020.4 |
| 20260831052712 | 23 | 224 | 0.0 | 0.0 | 0.00 | 0.00 | 0.00 | 92 | 1020.7 |
| 20260831052211 | 23 | 235 | 0.0 | 0.0 | 0.00 | 0.00 | 0.00 | 92 | 1020.5 |
| 20260831051709 | 23 | 235 | 0.0 | 0.0 | 0.00 | 0.00 | 0.00 | 92 | 1020.4 |
| 20260831051208 | 23 | 331 | 0.0 | 0.0 | 0.00 | 0.00 | 0.00 | 92 | 1020.7 |